Date String (YYYY-MM-DD hh:mm:ss) UTC,Instrument flags,Ambient pressure (hPa),Sample flow (lpm),Bypass flow (lpm),Sample temperature (°C),Ambient temperature (°C),ASC tube jacket temperature (°C),LED temperature (°C),Box temperature (°C),Sample RH (%),Span deviation,Mass concentration (μg/m³),Mass concentration (μg/m³),Mass concentration (μg/m³)
DateTimeUTC,F1_M11,P_M11,Q1_M11,Q2_M11,T1_M11,T2_M11,T3_M11,T4_M11,T5_M11,U1_M11,ZSPAN_M11,X0_M11,X2_M11,X1_M11
2022-03-30 13:00:00,,0819.1,5.00,0.00,21.4,20.2,00.0,30.5,23.0,14.7,0000.0,0005.69,0004.05,0003.85
2022-03-30 13:01:00,,0819.1,5.01,0.00,21.3,20.2,00.0,30.5,23.0,14.7,0000.0,0005.72,0004.07,0003.84
2022-03-30 13:02:00,,0819.1,5.01,0.00,21.3,20.1,00.0,30.5,22.9,14.7,0000.0,0005.64,0004.06,0003.84
2022-03-30 13:03:00,,0819.1,5.01,0.00,21.3,20.1,00.0,30.5,22.9,14.7,0000.0,0005.71,0004.07,0003.83
2022-03-30 13:04:00,,0819.2,4.99,0.00,21.3,20.8,00.0,30.5,23.0,14.7,0000.0,0005.60,0004.08,0003.82
2022-03-30 13:05:00,,0819.3,5.00,0.00,21.5,21.8,00.0,30.5,23.3,14.5,0000.0,0005.68,0004.09,0003.81
2022-03-30 13:06:00,,0819.3,5.01,0.00,21.6,22.6,00.0,30.6,23.6,14.5,0000.0,0005.59,0004.08,0003.81
2022-03-30 13:07:00,,0819.3,5.01,0.00,21.7,22.3,00.0,30.6,23.6,14.4,0000.0,0005.69,0004.09,0003.82
2022-03-30 13:08:00,,0819.2,5.00,0.00,21.7,22.0,00.0,30.6,23.6,14.4,0000.0,0006.25,0004.11,0003.82
2022-03-30 13:09:00,,0819.1,4.99,0.00,21.7,21.6,00.0,30.6,23.5,14.4,0000.0,0006.52,0004.13,0003.83
2022-03-30 13:10:00,,0819.2,5.00,0.00,21.7,21.4,00.0,30.6,23.4,14.5,0000.0,0007.03,0004.13,0003.83
2022-03-30 13:11:00,,0819.2,4.99,0.00,21.6,21.2,00.0,30.6,23.3,14.5,0000.0,0007.47,0004.11,0003.83
2022-03-30 13:12:00,,0819.2,5.00,0.00,21.6,21.0,00.0,30.6,23.3,14.5,0000.0,0007.42,0004.09,0003.84
2022-03-30 13:13:00,,0819.2,5.00,0.00,21.6,20.8,00.0,30.6,23.3,14.5,0000.0,0007.42,0004.08,0003.84
2022-03-30 13:14:00,,0819.2,5.00,0.00,21.5,20.7,00.0,30.6,23.2,14.6,0000.0,0007.38,0004.07,0003.85
2022-03-30 13:15:00,,0819.3,4.99,0.00,21.5,20.5,00.0,30.6,23.2,14.6,0000.0,0007.34,0004.07,0003.87
2022-03-30 13:16:00,,0819.2,5.00,0.00,21.5,20.4,00.0,30.6,23.1,14.6,0000.0,0007.39,0004.08,0003.88
2022-03-30 13:17:00,,0819.2,5.00,0.00,21.4,20.3,00.0,30.5,23.1,14.6,0000.0,0007.41,0004.09,0003.88
2022-03-30 13:18:00,,0819.2,5.00,0.00,21.4,20.3,00.0,30.5,23.0,14.6,0000.0,0007.39,0004.11,0003.89
2022-03-30 13:19:00,,0819.2,5.00,0.00,21.4,20.2,00.0,30.5,22.9,14.6,0000.0,0006.83,0004.11,0003.90
2022-03-30 13:20:00,,0819.2,5.00,0.00,21.3,20.0,00.0,30.5,22.9,14.7,0000.0,0006.72,0004.12,0003.91
2022-03-30 13:21:00,,0819.2,5.00,0.00,21.2,20.0,00.0,30.5,22.8,14.7,0000.0,0006.09,0004.12,0003.92
2022-03-30 13:22:00,,0819.2,5.00,0.00,21.2,20.0,00.0,30.4,22.8,14.8,0000.0,0005.62,0004.14,0003.94
2022-03-30 13:23:00,,0819.3,5.00,0.00,21.2,19.9,00.0,30.4,22.8,14.9,0000.0,0005.64,0004.16,0003.96
2022-03-30 13:24:00,,0819.2,5.00,0.00,21.1,19.9,00.0,30.4,22.7,14.9,0000.0,0005.91,0004.19,0003.99
2022-03-30 13:25:00,,0819.3,5.00,0.00,21.1,20.3,00.0,30.4,22.8,14.9,0000.0,0005.98,0004.22,0004.01
2022-03-30 13:26:00,,0819.3,5.02,0.00,21.3,21.4,00.0,30.4,23.1,14.9,0000.0,0005.98,0004.22,0004.01
2022-03-30 13:27:00,,0819.4,4.99,0.00,21.4,22.4,00.0,30.4,23.4,14.8,0000.0,0005.92,0004.22,0004.02
2022-03-30 13:28:00,,0819.4,5.00,0.00,21.5,22.4,00.0,30.5,23.5,14.7,0000.0,0005.88,0004.23,0004.04
2022-03-30 13:29:00,,0819.4,5.00,0.00,21.6,21.9,00.0,30.5,23.4,14.7,0000.0,0006.12,0004.23,0004.06
2022-03-30 13:30:00,,0819.4,4.99,0.00,21.5,21.5,00.0,30.5,23.3,14.7,0000.0,0006.34,0004.26,0004.08
2022-03-30 13:31:00,,0819.3,5.01,0.00,21.5,21.1,00.0,30.5,23.2,14.8,0000.0,0006.39,0004.28,0004.10
2022-03-30 13:32:00,,0819.3,4.99,0.00,21.5,20.8,00.0,30.5,23.2,14.8,0000.0,0006.40,0004.29,0004.10
2022-03-30 13:33:00,,0819.4,5.00,0.00,21.4,20.6,00.0,30.5,23.1,14.9,0000.0,0006.44,0004.31,0004.11
2022-03-30 13:34:00,,0819.4,5.00,0.00,21.4,20.5,00.0,30.4,23.1,14.9,0000.0,0006.46,0004.31,0004.11
2022-03-30 13:35:00,,0819.3,5.00,0.00,21.4,20.3,00.0,30.4,23.0,14.9,0000.0,0006.15,0004.28,0004.10
2022-03-30 13:36:00,,0819.3,4.99,0.00,21.4,20.2,00.0,30.4,23.0,15.0,0000.0,0006.15,0004.28,0004.10
2022-03-30 13:37:00,,0819.3,5.00,0.00,21.3,20.1,00.0,30.4,22.9,15.0,0000.0,0006.43,0004.33,0004.12
2022-03-30 13:38:00,,0819.3,5.00,0.00,21.3,20.0,00.0,30.4,22.9,15.0,0000.0,0006.45,0004.35,0004.13
2022-03-30 13:39:00,,0819.3,5.00,0.00,21.2,19.9,00.0,30.4,22.8,15.0,0000.0,0006.51,0004.36,0004.14
2022-03-30 13:40:00,,0819.3,5.02,0.00,21.2,19.9,00.0,30.4,22.7,15.0,0000.0,0006.35,0004.39,0004.15
2022-03-30 13:41:00,,0819.3,5.00,0.00,21.1,19.8,00.0,30.3,22.7,15.1,0000.0,0006.28,0004.38,0004.15
2022-03-30 13:42:00,,0819.4,4.99,0.00,21.1,19.8,00.0,30.3,22.7,15.2,0000.0,0006.53,0004.38,0004.15
2022-03-30 13:43:00,,0819.4,5.00,0.00,21.1,19.8,00.0,30.3,22.6,15.1,0000.0,0007.24,0004.39,0004.16
2022-03-30 13:44:00,,0819.4,5.01,0.00,21.0,19.7,00.0,30.3,22.6,15.1,0000.0,0007.19,0004.39,0004.17
2022-03-30 13:45:00,,0819.3,5.00,0.00,21.0,19.7,00.0,30.2,22.6,15.1,0000.0,0007.23,0004.41,0004.19
2022-03-30 13:46:00,,0819.3,5.00,0.00,21.0,19.7,00.0,30.2,22.5,15.2,0000.0,0007.43,0004.46,0004.21
2022-03-30 13:47:00,,0819.4,5.00,0.00,21.0,19.7,00.0,30.2,22.5,15.2,0000.0,0007.53,0004.51,0004.25
2022-03-30 13:48:00,,0819.4,5.00,0.00,20.9,19.8,00.0,30.2,22.5,15.3,0000.0,0007.46,0004.49,0004.25
2022-03-30 13:49:00,,0819.4,5.01,0.00,20.9,20.0,00.0,30.1,22.5,15.3,0000.0,0007.50,0004.51,0004.27
2022-03-30 13:50:00,,0819.4,4.99,0.00,21.0,20.9,00.0,30.2,22.8,15.4,0000.0,0007.58,0004.54,0004.29
2022-03-30 13:51:00,,0819.4,5.01,0.00,21.2,22.0,00.0,30.2,23.1,15.3,0000.0,0007.76,0004.55,0004.30
2022-03-30 13:52:00,,0819.4,5.00,0.00,21.4,22.6,00.0,30.2,23.4,15.2,0000.0,0008.28,0004.56,0004.31
2022-03-30 13:53:00,,0819.4,4.99,0.00,21.4,22.3,00.0,30.3,23.4,15.1,0000.0,0008.24,0004.58,0004.32
2022-03-30 13:54:00,,0819.4,5.00,0.00,21.4,21.9,00.0,30.3,23.3,14.9,0000.0,0007.93,0004.61,0004.34
2022-03-30 13:55:00,,0819.4,5.01,0.00,21.4,21.7,00.0,30.3,23.2,14.8,0000.0,0008.04,0004.66,0004.37
2022-03-30 13:56:00,,0819.4,5.00,0.00,21.4,21.4,00.0,30.3,23.1,14.8,0000.0,0008.09,0004.69,0004.38
2022-03-30 13:57:00,,0819.4,4.99,0.00,21.4,21.2,00.0,30.3,23.1,14.8,0000.0,0008.01,0004.69,0004.39
2022-03-30 13:58:00,,0819.4,5.01,0.00,21.4,21.0,00.0,30.3,23.0,14.9,0000.0,0007.91,0004.68,0004.40
2022-03-30 13:59:00,,0819.4,5.00,0.00,21.3,20.7,00.0,30.3,23.0,15.0,0000.0,0007.97,0004.70,0004.42
